Location: Chuathbaluk
(61.5726°N, 159.2454°W)
Time: 22:39:51
(UTC+00:00)

Max Valier Satellite - Pass Details

Date: 22 January 2021
Orbit: 488 x 504 km, 97.3° (Epoch: 25 February)

Event Time Altitude Azimuth Distance (km) Brightness Sun altitude
Exits shadow 05:34:45 11° 360° (N) 1,692 ? -22.6°
Drops below altitude 10° 05:34:50 10° 359° (N) 1,723 ? -22.7°
Sets 05:37:07 0° 348° (NNW) 2,615 ? -22.9°
